Year,Month,Day,Hour,Minute,Value (Times are PST for temperature in C)
2015,04,22,00,00,7.90
2015,04,22,00,01,7.90
2015,04,22,00,02,7.90
2015,04,22,00,03,7.80
2015,04,22,00,04,7.80
2015,04,22,00,05,7.80
2015,04,22,00,06,7.80
2015,04,22,00,07,7.80
2015,04,22,00,08,7.80
2015,04,22,00,09,7.70
2015,04,22,00,10,7.70
2015,04,22,00,11,7.70
2015,04,22,00,12,7.60
2015,04,22,00,13,7.60
2015,04,22,00,14,7.60
2015,04,22,00,15,7.60
2015,04,22,00,16,7.50
2015,04,22,00,17,7.50
2015,04,22,00,18,7.40
2015,04,22,00,19,7.40
2015,04,22,00,20,7.40
2015,04,22,00,21,7.30
2015,04,22,00,22,7.30
2015,04,22,00,23,7.30
2015,04,22,00,24,7.30
2015,04,22,00,25,7.20
2015,04,22,00,26,7.20
2015,04,22,00,27,7.20
2015,04,22,00,28,7.20
2015,04,22,00,29,7.10
2015,04,22,00,30,7.10
2015,04,22,00,31,7.10
2015,04,22,00,32,7.10
2015,04,22,00,33,7.00
2015,04,22,00,34,7.00
2015,04,22,00,35,7.00
2015,04,22,00,36,6.90
2015,04,22,00,37,6.90
2015,04,22,00,38,6.90
2015,04,22,00,39,6.90
2015,04,22,00,40,6.90
2015,04,22,00,41,6.90
2015,04,22,00,42,6.90
2015,04,22,00,43,6.90
2015,04,22,00,44,6.80
2015,04,22,00,45,6.90
2015,04,22,00,46,6.90
2015,04,22,00,47,6.90
2015,04,22,00,48,7.00
2015,04,22,00,49,7.00
2015,04,22,00,50,7.10
2015,04,22,00,51,7.10
2015,04,22,00,52,7.10
2015,04,22,00,53,7.20
2015,04,22,00,54,7.20
2015,04,22,00,55,7.20
2015,04,22,00,56,7.20
2015,04,22,00,57,7.20
2015,04,22,00,58,7.20
2015,04,22,00,59,7.20
2015,04,22,01,00,7.20
2015,04,22,01,01,7.20
2015,04,22,01,02,7.20
2015,04,22,01,03,7.20
2015,04,22,01,04,7.20
2015,04,22,01,05,7.20
2015,04,22,01,06,7.20
2015,04,22,01,07,7.20
2015,04,22,01,08,7.20
2015,04,22,01,09,7.20
2015,04,22,01,10,7.20
2015,04,22,01,11,7.20
2015,04,22,01,12,7.20
2015,04,22,01,13,7.20
2015,04,22,01,14,7.20
2015,04,22,01,15,7.20
2015,04,22,01,16,7.20
2015,04,22,01,17,7.20
2015,04,22,01,18,7.20
2015,04,22,01,19,7.20
2015,04,22,01,20,7.20
2015,04,22,01,21,7.20
2015,04,22,01,22,7.20
2015,04,22,01,23,7.20
2015,04,22,01,24,7.20
2015,04,22,01,25,7.20
2015,04,22,01,26,7.20
2015,04,22,01,27,7.20
2015,04,22,01,28,7.10
2015,04,22,01,29,7.10
2015,04,22,01,30,7.10
2015,04,22,01,31,7.10
2015,04,22,01,32,7.00
2015,04,22,01,33,7.00
2015,04,22,01,34,6.90
2015,04,22,01,35,6.90
2015,04,22,01,36,6.90
2015,04,22,01,37,6.90
2015,04,22,01,38,6.90
2015,04,22,01,39,6.90
2015,04,22,01,40,6.90
2015,04,22,01,41,6.90
2015,04,22,01,42,6.90
2015,04,22,01,43,6.90
2015,04,22,01,44,6.90
2015,04,22,01,45,6.90
2015,04,22,01,46,6.90
2015,04,22,01,47,6.90
2015,04,22,01,48,6.90
2015,04,22,01,49,6.90
2015,04,22,01,50,6.80
2015,04,22,01,51,6.80
2015,04,22,01,52,6.80
2015,04,22,01,53,6.80
2015,04,22,01,54,6.70
2015,04,22,01,55,6.70
2015,04,22,01,56,6.70
2015,04,22,01,57,6.70
2015,04,22,01,58,6.60
2015,04,22,01,59,6.60
2015,04,22,02,00,6.60
2015,04,22,02,01,6.60
2015,04,22,02,02,6.60
2015,04,22,02,03,6.60
2015,04,22,02,04,6.60
2015,04,22,02,05,6.70
2015,04,22,02,06,6.70
2015,04,22,02,07,6.80
2015,04,22,02,08,6.90
2015,04,22,02,09,6.90
2015,04,22,02,10,7.00
2015,04,22,02,11,7.00
2015,04,22,02,12,7.10
2015,04,22,02,13,7.10
2015,04,22,02,14,7.10
2015,04,22,02,15,7.10
2015,04,22,02,16,7.10
2015,04,22,02,17,7.10
2015,04,22,02,18,7.10
2015,04,22,02,19,7.10
2015,04,22,02,20,7.10
2015,04,22,02,21,7.10
2015,04,22,02,22,7.20
2015,04,22,02,23,7.20
2015,04,22,02,24,7.20
2015,04,22,02,25,7.20
2015,04,22,02,26,7.20
2015,04,22,02,27,7.20
2015,04,22,02,28,7.20
2015,04,22,02,29,7.20
2015,04,22,02,30,7.20
2015,04,22,02,31,7.20
2015,04,22,02,32,7.20
2015,04,22,02,33,7.20
2015,04,22,02,34,7.20
2015,04,22,02,35,7.10
2015,04,22,02,36,7.10
2015,04,22,02,37,7.10
2015,04,22,02,38,7.10
2015,04,22,02,39,7.10
2015,04,22,02,40,7.10
2015,04,22,02,41,7.00
2015,04,22,02,42,7.00
2015,04,22,02,43,7.00
2015,04,22,02,44,7.00
2015,04,22,02,45,7.00
2015,04,22,02,46,6.90
2015,04,22,02,47,6.90
2015,04,22,02,48,6.90
2015,04,22,02,49,6.90
2015,04,22,02,50,6.90
2015,04,22,02,51,6.90
2015,04,22,02,52,6.90
2015,04,22,02,53,6.80
2015,04,22,02,54,6.80
2015,04,22,02,55,6.80
2015,04,22,02,56,6.80
2015,04,22,02,57,6.80
2015,04,22,02,58,6.80
2015,04,22,02,59,6.80
2015,04,22,03,00,6.80
2015,04,22,03,01,6.70
2015,04,22,03,02,6.70
2015,04,22,03,03,6.70
2015,04,22,03,04,6.60
2015,04,22,03,05,6.60
2015,04,22,03,06,6.60
2015,04,22,03,07,6.50
2015,04,22,03,08,6.50
2015,04,22,03,09,6.40
2015,04,22,03,10,6.40
2015,04,22,03,11,6.40
2015,04,22,03,12,6.40
2015,04,22,03,13,6.30
2015,04,22,03,14,6.30
2015,04,22,03,15,6.30
2015,04,22,03,16,6.20
2015,04,22,03,17,6.20
2015,04,22,03,18,6.20
2015,04,22,03,19,6.20
2015,04,22,03,20,6.20
2015,04,22,03,21,6.20
2015,04,22,03,22,6.10
2015,04,22,03,23,6.10
2015,04,22,03,24,6.10
2015,04,22,03,25,6.00
2015,04,22,03,26,5.90
2015,04,22,03,27,5.90
2015,04,22,03,28,5.90
2015,04,22,03,29,5.80
2015,04,22,03,30,5.80
2015,04,22,03,31,5.80
2015,04,22,03,32,5.70
2015,04,22,03,33,5.70
2015,04,22,03,34,5.70
2015,04,22,03,35,5.70
2015,04,22,03,36,5.60
2015,04,22,03,37,5.60
2015,04,22,03,38,5.60
2015,04,22,03,39,5.60
2015,04,22,03,40,5.60
2015,04,22,03,41,5.60
2015,04,22,03,42,5.60
2015,04,22,03,43,5.60
2015,04,22,03,44,5.60
2015,04,22,03,45,5.60
2015,04,22,03,46,5.60
2015,04,22,03,47,5.60
2015,04,22,03,48,5.60
2015,04,22,03,49,5.60
2015,04,22,03,50,5.60
2015,04,22,03,51,5.60
2015,04,22,03,52,5.60
2015,04,22,03,53,5.60
2015,04,22,03,54,5.60
2015,04,22,03,55,5.60
2015,04,22,03,56,5.70
2015,04,22,03,57,5.70
2015,04,22,03,58,5.70
2015,04,22,03,59,5.70
2015,04,22,04,00,5.80
2015,04,22,04,01,5.80
2015,04,22,04,02,5.90
2015,04,22,04,03,5.90
2015,04,22,04,04,6.00
2015,04,22,04,05,6.00
2015,04,22,04,06,6.00
2015,04,22,04,07,6.10
2015,04,22,04,08,6.10
2015,04,22,04,09,6.20
2015,04,22,04,10,6.20
2015,04,22,04,11,6.20
2015,04,22,04,12,6.20
2015,04,22,04,13,6.30
2015,04,22,04,14,6.30
2015,04,22,04,15,6.30
2015,04,22,04,16,6.30
2015,04,22,04,17,6.30
2015,04,22,04,18,6.30
2015,04,22,04,19,6.20
2015,04,22,04,20,6.20
2015,04,22,04,21,6.20
2015,04,22,04,22,6.30
2015,04,22,04,23,6.30
2015,04,22,04,24,6.30
2015,04,22,04,25,6.30
2015,04,22,04,26,6.30
2015,04,22,04,27,6.20
2015,04,22,04,28,6.20
2015,04,22,04,29,6.20
2015,04,22,04,30,6.20
2015,04,22,04,31,6.10
2015,04,22,04,32,6.10
2015,04,22,04,33,6.00
2015,04,22,04,34,6.00
2015,04,22,04,35,5.90
2015,04,22,04,36,5.90
2015,04,22,04,37,5.80
2015,04,22,04,38,5.70
2015,04,22,04,39,5.70
2015,04,22,04,40,5.60
2015,04,22,04,41,5.50
2015,04,22,04,42,5.50
2015,04,22,04,43,5.50
2015,04,22,04,44,5.40
2015,04,22,04,45,5.40
2015,04,22,04,46,5.30
2015,04,22,04,47,5.30
2015,04,22,04,48,5.30
2015,04,22,04,49,5.30
2015,04,22,04,50,5.30
2015,04,22,04,51,5.20
2015,04,22,04,52,5.20
2015,04,22,04,53,5.20
2015,04,22,04,54,5.20
2015,04,22,04,55,5.20
2015,04,22,04,56,5.20
2015,04,22,04,57,5.20
2015,04,22,04,58,5.10
2015,04,22,04,59,5.10
2015,04,22,05,00,5.10
2015,04,22,05,01,5.00
2015,04,22,05,02,5.00
2015,04,22,05,03,4.90
2015,04,22,05,04,4.90
2015,04,22,05,05,4.80
2015,04,22,05,06,4.80
2015,04,22,05,07,4.80
2015,04,22,05,08,4.70
2015,04,22,05,09,4.70
2015,04,22,05,10,4.70
2015,04,22,05,11,4.60
2015,04,22,05,12,4.60
2015,04,22,05,13,4.60
2015,04,22,05,14,4.50
2015,04,22,05,15,4.50
2015,04,22,05,16,4.40
2015,04,22,05,17,4.40
2015,04,22,05,18,4.40
2015,04,22,05,19,4.40
2015,04,22,05,20,4.40
2015,04,22,05,21,4.40
2015,04,22,05,22,4.40
2015,04,22,05,23,4.40
2015,04,22,05,24,4.40
2015,04,22,05,25,4.40
2015,04,22,05,26,4.50
2015,04,22,05,27,4.50
2015,04,22,05,28,4.50
2015,04,22,05,29,4.40
2015,04,22,05,30,4.40
2015,04,22,05,31,4.40
2015,04,22,05,32,4.30
2015,04,22,05,33,4.30
2015,04,22,05,34,4.20
2015,04,22,05,35,4.20
2015,04,22,05,36,4.10
2015,04,22,05,37,4.10
2015,04,22,05,38,4.10
2015,04,22,05,39,4.00
2015,04,22,05,40,4.00
2015,04,22,05,41,3.90
2015,04,22,05,42,3.90
2015,04,22,05,43,3.90
2015,04,22,05,44,3.90
2015,04,22,05,45,3.90
2015,04,22,05,46,3.80
2015,04,22,05,47,3.80
2015,04,22,05,48,3.80
2015,04,22,05,49,3.80
2015,04,22,05,50,3.80
2015,04,22,05,51,3.90
2015,04,22,05,52,3.90
2015,04,22,05,53,3.90
2015,04,22,05,54,3.80
2015,04,22,05,55,3.80
2015,04,22,05,56,3.80
2015,04,22,05,57,3.80
2015,04,22,05,58,3.80
2015,04,22,05,59,3.70
2015,04,22,06,00,3.70
2015,04,22,06,01,3.70
2015,04,22,06,02,3.70
2015,04,22,06,03,3.70
2015,04,22,06,04,3.60
2015,04,22,06,05,3.60
2015,04,22,06,06,3.60
2015,04,22,06,07,3.60
2015,04,22,06,08,3.60
2015,04,22,06,09,3.60
2015,04,22,06,10,3.60
2015,04,22,06,11,3.60
2015,04,22,06,12,3.60
2015,04,22,06,13,3.60
2015,04,22,06,14,3.60
2015,04,22,06,15,3.60
2015,04,22,06,16,3.60
2015,04,22,06,17,3.60
2015,04,22,06,18,3.70
2015,04,22,06,19,3.70
2015,04,22,06,20,3.70
2015,04,22,06,21,3.70
2015,04,22,06,22,3.70
2015,04,22,06,23,3.70
2015,04,22,06,24,3.70
2015,04,22,06,25,3.70
2015,04,22,06,26,3.70
2015,04,22,06,27,3.70
2015,04,22,06,28,3.70
2015,04,22,06,29,3.70
2015,04,22,06,30,3.70
2015,04,22,06,31,3.70
2015,04,22,06,32,3.70
2015,04,22,06,33,3.80
2015,04,22,06,34,3.80
2015,04,22,06,35,3.80
2015,04,22,06,36,3.80
2015,04,22,06,37,3.80
2015,04,22,06,38,3.90
2015,04,22,06,39,3.90
2015,04,22,06,40,4.00
2015,04,22,06,41,4.00
2015,04,22,06,42,4.10
2015,04,22,06,43,4.10
2015,04,22,06,44,4.10
2015,04,22,06,45,4.10
2015,04,22,06,46,4.10
2015,04,22,06,47,4.10
2015,04,22,06,48,4.10
2015,04,22,06,49,4.10
2015,04,22,06,50,4.10
2015,04,22,06,51,4.20
2015,04,22,06,52,4.20
2015,04,22,06,53,4.30
2015,04,22,06,54,4.30
2015,04,22,06,55,4.30
2015,04,22,06,56,4.30
2015,04,22,06,57,4.30
2015,04,22,06,58,4.40
2015,04,22,06,59,4.40
2015,04,22,07,00,4.40
2015,04,22,07,01,4.40
2015,04,22,07,02,4.40
2015,04,22,07,03,4.40
2015,04,22,07,04,4.40
2015,04,22,07,05,4.40
2015,04,22,07,06,4.40
2015,04,22,07,07,4.30
2015,04,22,07,08,4.30
2015,04,22,07,09,4.30
2015,04,22,07,10,4.30
2015,04,22,07,11,4.30
2015,04,22,07,12,4.20
2015,04,22,07,13,4.20
2015,04,22,07,14,4.20
2015,04,22,07,15,4.20
2015,04,22,07,16,4.20
2015,04,22,07,17,4.20
2015,04,22,07,18,4.30
2015,04,22,07,19,4.30
2015,04,22,07,20,4.30
2015,04,22,07,21,4.40
2015,04,22,07,22,4.40
2015,04,22,07,23,4.40
2015,04,22,07,24,4.50
2015,04,22,07,25,4.50
2015,04,22,07,26,4.60
2015,04,22,07,27,4.60
2015,04,22,07,28,4.70
2015,04,22,07,29,4.80
2015,04,22,07,30,4.80
2015,04,22,07,31,4.80
2015,04,22,07,32,4.90
2015,04,22,07,33,5.00
2015,04,22,07,34,5.00
2015,04,22,07,35,5.10
2015,04,22,07,36,5.10
2015,04,22,07,37,5.20
2015,04,22,07,38,5.20
2015,04,22,07,39,5.30
2015,04,22,07,40,5.40
2015,04,22,07,41,5.50
2015,04,22,07,42,5.60
2015,04,22,07,43,5.60
2015,04,22,07,44,5.70
2015,04,22,07,45,5.80
2015,04,22,07,46,5.80
2015,04,22,07,47,5.90
2015,04,22,07,48,5.90
2015,04,22,07,49,6.00
2015,04,22,07,50,6.10
2015,04,22,07,51,6.20
2015,04,22,07,52,6.30
2015,04,22,07,53,6.40
2015,04,22,07,54,6.60
2015,04,22,07,55,6.70
2015,04,22,07,56,6.80
2015,04,22,07,57,6.90
2015,04,22,07,58,7.00
2015,04,22,07,59,7.10
2015,04,22,08,00,7.20
2015,04,22,08,01,7.30
2015,04,22,08,02,7.40
2015,04,22,08,03,7.50
2015,04,22,08,04,7.60
2015,04,22,08,05,7.70
2015,04,22,08,06,7.80
2015,04,22,08,07,7.90
2015,04,22,08,08,7.90
2015,04,22,08,09,7.90
2015,04,22,08,10,8.00
2015,04,22,08,11,8.00
2015,04,22,08,12,8.10
2015,04,22,08,13,8.10
2015,04,22,08,14,8.20
2015,04,22,08,15,8.20
2015,04,22,08,16,8.40
2015,04,22,08,17,8.50
2015,04,22,08,18,8.60
2015,04,22,08,19,8.70
2015,04,22,08,20,8.80
2015,04,22,08,21,8.80
2015,04,22,08,22,9.00
2015,04,22,08,23,9.10
2015,04,22,08,24,9.10
2015,04,22,08,25,9.20
2015,04,22,08,26,9.30
2015,04,22,08,27,9.40
2015,04,22,08,28,9.40
2015,04,22,08,29,9.50
2015,04,22,08,30,9.60
2015,04,22,08,31,9.60
2015,04,22,08,32,9.60
2015,04,22,08,33,9.60
2015,04,22,08,34,9.70
2015,04,22,08,35,9.70
2015,04,22,08,36,9.80
2015,04,22,08,37,9.90
2015,04,22,08,38,9.90
2015,04,22,08,39,10.00
2015,04,22,08,40,10.00
2015,04,22,08,41,10.10
2015,04,22,08,42,10.20
2015,04,22,08,43,10.20
2015,04,22,08,44,10.20
2015,04,22,08,45,10.20
2015,04,22,08,46,10.20
2015,04,22,08,47,10.20
2015,04,22,08,48,10.20
2015,04,22,08,49,10.20
2015,04,22,08,50,10.20
2015,04,22,08,51,10.20
2015,04,22,08,52,10.10
2015,04,22,08,53,10.10
2015,04,22,08,54,10.00
2015,04,22,08,55,10.00
2015,04,22,08,56,9.90
2015,04,22,08,57,9.90
2015,04,22,08,58,9.80
2015,04,22,08,59,9.80
2015,04,22,09,00,9.80
2015,04,22,09,01,9.80
2015,04,22,09,02,9.90
2015,04,22,09,03,9.90
2015,04,22,09,04,10.00
2015,04,22,09,05,10.10
2015,04,22,09,06,10.10
2015,04,22,09,07,10.10
2015,04,22,09,08,10.10
2015,04,22,09,09,10.10
2015,04,22,09,10,10.20
2015,04,22,09,11,10.20
2015,04,22,09,12,10.20
2015,04,22,09,13,10.30
2015,04,22,09,14,10.30
2015,04,22,09,15,10.30
2015,04,22,09,16,10.40
2015,04,22,09,17,10.40
2015,04,22,09,18,10.50
2015,04,22,09,19,10.50
2015,04,22,09,20,10.50
2015,04,22,09,21,10.50
2015,04,22,09,22,10.50
2015,04,22,09,23,10.50
2015,04,22,09,24,10.50
2015,04,22,09,25,10.50
2015,04,22,09,26,10.60
2015,04,22,09,27,10.50
2015,04,22,09,28,10.50
2015,04,22,09,29,10.50
2015,04,22,09,30,10.50
2015,04,22,09,31,10.50
2015,04,22,09,32,10.50
2015,04,22,09,33,10.50
2015,04,22,09,34,10.50
2015,04,22,09,35,10.50
2015,04,22,09,36,10.60
2015,04,22,09,37,10.60
2015,04,22,09,38,10.70
2015,04,22,09,39,10.60
2015,04,22,09,40,10.70
2015,04,22,09,41,10.70
2015,04,22,09,42,10.70
2015,04,22,09,43,10.70
2015,04,22,09,44,10.70
2015,04,22,09,45,10.70
2015,04,22,09,46,10.70
2015,04,22,09,47,10.80
2015,04,22,09,48,10.80
2015,04,22,09,49,10.90
2015,04,22,09,50,10.90
2015,04,22,09,51,11.00
2015,04,22,09,52,11.10
2015,04,22,09,53,11.20
2015,04,22,09,54,11.30
2015,04,22,09,55,11.30
2015,04,22,09,56,11.40
2015,04,22,09,57,11.40
2015,04,22,09,58,11.40
2015,04,22,09,59,11.40
2015,04,22,10,00,11.40
2015,04,22,10,01,11.40
2015,04,22,10,02,11.40
2015,04,22,10,03,11.40
2015,04,22,10,04,11.40
2015,04,22,10,05,11.30
2015,04,22,10,06,11.30
2015,04,22,10,07,11.30
2015,04,22,10,08,11.30
2015,04,22,10,09,11.30
2015,04,22,10,10,11.30
2015,04,22,10,11,11.30
2015,04,22,10,12,11.30
2015,04,22,10,13,11.30
2015,04,22,10,14,11.30
2015,04,22,10,15,11.20
2015,04,22,10,16,11.20
2015,04,22,10,17,11.10
2015,04,22,10,18,11.00
2015,04,22,10,19,11.10
2015,04,22,10,20,11.10
2015,04,22,10,21,11.10
2015,04,22,10,22,11.20
2015,04,22,10,23,11.30
2015,04,22,10,24,11.40
2015,04,22,10,25,11.50
2015,04,22,10,26,11.60
2015,04,22,10,27,11.70
2015,04,22,10,28,11.70
2015,04,22,10,29,11.70
2015,04,22,10,30,11.80
2015,04,22,10,31,11.80
2015,04,22,10,32,11.70
2015,04,22,10,33,11.70
2015,04,22,10,34,11.70
2015,04,22,10,35,11.70
2015,04,22,10,36,11.70
2015,04,22,10,37,11.70
2015,04,22,10,38,11.80
2015,04,22,10,39,11.80
2015,04,22,10,40,11.80
2015,04,22,10,41,11.90
2015,04,22,10,42,12.00
2015,04,22,10,43,12.20
2015,04,22,10,44,12.30
2015,04,22,10,45,12.40
2015,04,22,10,46,12.50
2015,04,22,10,47,12.60
2015,04,22,10,48,12.50
2015,04,22,10,49,12.50
2015,04,22,10,50,12.40
2015,04,22,10,51,12.40
2015,04,22,10,52,12.40
2015,04,22,10,53,12.50
2015,04,22,10,54,12.50
2015,04,22,10,55,12.50
2015,04,22,10,56,12.50
2015,04,22,10,57,12.50
2015,04,22,10,58,12.40
2015,04,22,10,59,12.30
2015,04,22,11,00,12.30
2015,04,22,11,01,12.30
2015,04,22,11,02,12.50
2015,04,22,11,03,12.60
2015,04,22,11,04,12.60
2015,04,22,11,05,12.60
2015,04,22,11,06,12.60
2015,04,22,11,07,12.60
2015,04,22,11,08,12.60
2015,04,22,11,09,12.50
2015,04,22,11,10,12.50
2015,04,22,11,11,12.40
2015,04,22,11,12,12.50
2015,04,22,11,13,12.60
2015,04,22,11,14,12.60
2015,04,22,11,15,12.50
2015,04,22,11,16,12.50
2015,04,22,11,17,12.40
2015,04,22,11,18,12.30
2015,04,22,11,19,12.20
2015,04,22,11,20,12.20
2015,04,22,11,21,12.10
2015,04,22,11,22,12.00
2015,04,22,11,23,12.00
2015,04,22,11,24,12.00
2015,04,22,11,25,12.00
2015,04,22,11,26,12.00
2015,04,22,11,27,11.90
2015,04,22,11,28,11.90
2015,04,22,11,29,11.80
2015,04,22,11,30,11.80
2015,04,22,11,31,11.80
2015,04,22,11,32,11.90
2015,04,22,11,33,12.00
2015,04,22,11,34,12.00
2015,04,22,11,35,12.10
2015,04,22,11,36,12.20
2015,04,22,11,37,12.20
2015,04,22,11,38,12.20
2015,04,22,11,39,12.20
2015,04,22,11,40,12.30
2015,04,22,11,41,12.30
2015,04,22,11,42,12.40
2015,04,22,11,43,12.40
2015,04,22,11,44,12.40
2015,04,22,11,45,12.30
2015,04,22,11,46,12.30
2015,04,22,11,47,12.20
2015,04,22,11,48,12.20
2015,04,22,11,49,12.20
2015,04,22,11,50,12.20
2015,04,22,11,51,12.20
2015,04,22,11,52,12.10
2015,04,22,11,53,12.10
2015,04,22,11,54,12.00
2015,04,22,11,55,12.00
2015,04,22,11,56,12.10
2015,04,22,11,57,12.10
2015,04,22,11,58,12.20
2015,04,22,11,59,12.30
2015,04,22,12,00,12.40
2015,04,22,12,01,12.40
2015,04,22,12,02,12.50
2015,04,22,12,03,12.50
2015,04,22,12,04,12.60
2015,04,22,12,05,12.60
2015,04,22,12,06,12.60
2015,04,22,12,07,12.60
2015,04,22,12,08,12.50
2015,04,22,12,09,12.60
2015,04,22,12,10,12.50
2015,04,22,12,11,12.40
2015,04,22,12,12,12.40
2015,04,22,12,13,12.40
2015,04,22,12,14,12.40
2015,04,22,12,15,12.40
2015,04,22,12,16,12.40
2015,04,22,12,17,12.50
2015,04,22,12,18,12.60
2015,04,22,12,19,12.60
2015,04,22,12,20,12.70
2015,04,22,12,21,12.70
2015,04,22,12,22,12.70
2015,04,22,12,23,12.70
2015,04,22,12,24,12.70
2015,04,22,12,25,12.80
2015,04,22,12,26,12.90
2015,04,22,12,27,12.90
2015,04,22,12,28,12.90
2015,04,22,12,29,13.00
2015,04,22,12,30,12.90
2015,04,22,12,31,12.80
2015,04,22,12,32,12.70
2015,04,22,12,33,12.70
2015,04,22,12,34,12.60
2015,04,22,12,35,12.60
2015,04,22,12,36,12.60
2015,04,22,12,37,12.60
2015,04,22,12,38,12.60
2015,04,22,12,39,12.70
2015,04,22,12,40,12.80
2015,04,22,12,41,12.90
2015,04,22,12,42,13.00
2015,04,22,12,43,13.10
2015,04,22,12,44,13.10
2015,04,22,12,45,13.10
2015,04,22,12,46,13.10
2015,04,22,12,47,13.10
2015,04,22,12,48,13.00
2015,04,22,12,49,13.00
2015,04,22,12,50,13.00
2015,04,22,12,51,13.10
2015,04,22,12,52,13.10
2015,04,22,12,53,13.10
2015,04,22,12,54,13.20
2015,04,22,12,55,13.20
2015,04,22,12,56,13.10
2015,04,22,12,57,13.00
2015,04,22,12,58,13.00
2015,04,22,12,59,13.10
2015,04,22,13,00,13.10
2015,04,22,13,01,13.20
2015,04,22,13,02,13.20
2015,04,22,13,03,13.20
2015,04,22,13,04,13.30
2015,04,22,13,05,13.30
2015,04,22,13,06,13.30
2015,04,22,13,07,13.30
2015,04,22,13,08,13.20
2015,04,22,13,09,13.10
2015,04,22,13,10,13.00
2015,04,22,13,11,12.90
2015,04,22,13,12,12.90
2015,04,22,13,13,12.90
2015,04,22,13,14,12.90
2015,04,22,13,15,13.00
2015,04,22,13,16,13.10
2015,04,22,13,17,13.10
2015,04,22,13,18,13.10
2015,04,22,13,19,13.10
2015,04,22,13,20,13.20
2015,04,22,13,21,13.20
2015,04,22,13,22,13.20
2015,04,22,13,23,13.30
2015,04,22,13,24,13.30
2015,04,22,13,25,13.40
2015,04,22,13,26,13.50
2015,04,22,13,27,13.60
2015,04,22,13,28,13.70
2015,04,22,13,29,13.80
2015,04,22,13,30,13.90
2015,04,22,13,31,14.10
2015,04,22,13,32,14.10
2015,04,22,13,33,14.00
2015,04,22,13,34,13.90
2015,04,22,13,35,13.90
2015,04,22,13,36,13.80
2015,04,22,13,37,13.80
2015,04,22,13,38,13.90
2015,04,22,13,39,13.90
2015,04,22,13,40,14.00
2015,04,22,13,41,13.90
2015,04,22,13,42,13.90
2015,04,22,13,43,13.90
2015,04,22,13,44,13.80
2015,04,22,13,45,13.70
2015,04,22,13,46,13.80
2015,04,22,13,47,13.90
2015,04,22,13,48,13.90
2015,04,22,13,49,14.00
2015,04,22,13,50,14.10
2015,04,22,13,51,14.10
2015,04,22,13,52,14.10
2015,04,22,13,53,14.20
2015,04,22,13,54,14.10
2015,04,22,13,55,14.10
2015,04,22,13,56,14.00
2015,04,22,13,57,13.90
2015,04,22,13,58,13.90
2015,04,22,13,59,13.90
2015,04,22,14,00,13.90
2015,04,22,14,01,13.90
2015,04,22,14,02,13.90
2015,04,22,14,03,13.80
2015,04,22,14,04,13.80
2015,04,22,14,05,13.80
2015,04,22,14,06,13.80
2015,04,22,14,07,13.80
2015,04,22,14,08,13.80
2015,04,22,14,09,13.80
2015,04,22,14,10,13.70
2015,04,22,14,11,13.70
2015,04,22,14,12,13.60
2015,04,22,14,13,13.60
2015,04,22,14,14,13.60
2015,04,22,14,15,13.60
2015,04,22,14,16,13.60
2015,04,22,14,17,13.70
2015,04,22,14,18,13.70
2015,04,22,14,19,13.70
2015,04,22,14,20,13.70
2015,04,22,14,21,13.70
2015,04,22,14,22,13.80
2015,04,22,14,23,13.80
2015,04,22,14,24,13.80
2015,04,22,14,25,13.80
2015,04,22,14,26,13.70
2015,04,22,14,27,13.70
2015,04,22,14,28,13.70
2015,04,22,14,29,13.80
2015,04,22,14,30,13.80
2015,04,22,14,31,13.80
2015,04,22,14,32,13.90
2015,04,22,14,33,13.90
2015,04,22,14,34,14.00
2015,04,22,14,35,14.00
2015,04,22,14,36,14.00
2015,04,22,14,37,14.00
2015,04,22,14,38,14.00
2015,04,22,14,39,14.00
2015,04,22,14,40,14.00
2015,04,22,14,41,14.00
2015,04,22,14,42,14.00
2015,04,22,14,43,14.10
2015,04,22,14,44,14.20
2015,04,22,14,45,14.30
2015,04,22,14,46,14.30
2015,04,22,14,47,14.30
2015,04,22,14,48,14.20
2015,04,22,14,49,14.30
2015,04,22,14,50,14.30
2015,04,22,14,51,14.30
2015,04,22,14,52,14.20
2015,04,22,14,53,14.10
2015,04,22,14,54,14.10
2015,04,22,14,55,14.10
2015,04,22,14,56,14.10
2015,04,22,14,57,14.10
2015,04,22,14,58,14.10
2015,04,22,14,59,14.00
2015,04,22,15,00,14.00
2015,04,22,15,01,13.90
2015,04,22,15,02,13.90
2015,04,22,15,03,13.90
2015,04,22,15,04,13.90
2015,04,22,15,05,13.80
2015,04,22,15,06,13.80
2015,04,22,15,07,13.80
2015,04,22,15,08,13.80
2015,04,22,15,09,13.80
2015,04,22,15,10,13.90
2015,04,22,15,11,14.00
2015,04,22,15,12,14.10
2015,04,22,15,13,14.10
2015,04,22,15,14,14.10
2015,04,22,15,15,14.10
2015,04,22,15,16,14.00
2015,04,22,15,17,13.90
2015,04,22,15,18,14.00
2015,04,22,15,19,14.20
2015,04,22,15,20,14.20
2015,04,22,15,21,14.20
2015,04,22,15,22,14.20
2015,04,22,15,23,14.30
2015,04,22,15,24,14.30
2015,04,22,15,25,14.30
2015,04,22,15,26,14.40
2015,04,22,15,27,14.50
2015,04,22,15,28,14.70
2015,04,22,15,29,14.80
2015,04,22,15,30,14.80
2015,04,22,15,31,14.70
2015,04,22,15,32,14.60
2015,04,22,15,33,14.60
2015,04,22,15,34,14.60
2015,04,22,15,35,14.50
2015,04,22,15,36,14.50
2015,04,22,15,37,14.40
2015,04,22,15,38,14.40
2015,04,22,15,39,14.30
2015,04,22,15,40,14.30
2015,04,22,15,41,14.30
2015,04,22,15,42,14.30
2015,04,22,15,43,14.20
2015,04,22,15,44,14.20
2015,04,22,15,45,14.10
2015,04,22,15,46,14.00
2015,04,22,15,47,13.90
2015,04,22,15,48,13.80
2015,04,22,15,49,13.70
2015,04,22,15,50,13.70
2015,04,22,15,51,13.70
2015,04,22,15,52,13.70
2015,04,22,15,53,13.70
2015,04,22,15,54,13.70
2015,04,22,15,55,13.80
2015,04,22,15,56,13.80
2015,04,22,15,57,13.80
2015,04,22,15,58,13.80
2015,04,22,15,59,13.80
2015,04,22,16,00,13.70
2015,04,22,16,01,13.70
2015,04,22,16,02,13.60
2015,04,22,16,03,13.60
2015,04,22,16,04,13.60
2015,04,22,16,05,13.60
2015,04,22,16,06,13.60
2015,04,22,16,07,13.60
2015,04,22,16,08,13.60
2015,04,22,16,09,13.60
2015,04,22,16,10,13.70
2015,04,22,16,11,13.70
2015,04,22,16,12,13.70
2015,04,22,16,13,13.70
2015,04,22,16,14,13.80
2015,04,22,16,15,13.80
2015,04,22,16,16,13.90
2015,04,22,16,17,13.90
2015,04,22,16,18,13.80
2015,04,22,16,19,13.90
2015,04,22,16,20,13.80
2015,04,22,16,21,13.90
2015,04,22,16,22,13.90
2015,04,22,16,23,14.00
2015,04,22,16,24,14.10
2015,04,22,16,25,14.10
2015,04,22,16,26,14.10
2015,04,22,16,27,14.20
2015,04,22,16,28,14.20
2015,04,22,16,29,14.10
2015,04,22,16,30,14.10
2015,04,22,16,31,14.10
2015,04,22,16,32,14.10
2015,04,22,16,33,14.10
2015,04,22,16,34,14.10
2015,04,22,16,35,14.10
2015,04,22,16,36,14.00
2015,04,22,16,37,13.90
2015,04,22,16,38,13.80
2015,04,22,16,39,13.80
2015,04,22,16,40,13.80
2015,04,22,16,41,13.80
2015,04,22,16,42,13.80
2015,04,22,16,43,13.80
2015,04,22,16,44,13.80
2015,04,22,16,45,13.90
2015,04,22,16,46,13.90
2015,04,22,16,47,13.90
2015,04,22,16,48,13.90
2015,04,22,16,49,13.90
2015,04,22,16,50,13.80
2015,04,22,16,51,13.80
2015,04,22,16,52,13.80
2015,04,22,16,53,13.80
2015,04,22,16,54,13.80
2015,04,22,16,55,13.80
2015,04,22,16,56,13.80
2015,04,22,16,57,13.90
2015,04,22,16,58,13.90
2015,04,22,16,59,13.90
2015,04,22,17,00,13.90
2015,04,22,17,01,13.90
2015,04,22,17,02,13.90
2015,04,22,17,03,13.90
2015,04,22,17,04,13.90
2015,04,22,17,05,13.90
2015,04,22,17,06,13.80
2015,04,22,17,07,13.80
2015,04,22,17,08,13.80
2015,04,22,17,09,13.70
2015,04,22,17,10,13.70
2015,04,22,17,11,13.70
2015,04,22,17,12,13.80
2015,04,22,17,13,13.80
2015,04,22,17,14,13.80
2015,04,22,17,15,13.80
2015,04,22,17,16,13.80
2015,04,22,17,17,13.80
2015,04,22,17,18,13.80
2015,04,22,17,19,13.90
2015,04,22,17,20,13.90
2015,04,22,17,21,14.00
2015,04,22,17,22,14.00
2015,04,22,17,23,13.90
2015,04,22,17,24,13.90
2015,04,22,17,25,13.90
2015,04,22,17,26,13.80
2015,04,22,17,27,13.80
2015,04,22,17,28,13.80
2015,04,22,17,29,13.70
2015,04,22,17,30,13.70
2015,04,22,17,31,13.70
2015,04,22,17,32,13.70
2015,04,22,17,33,13.60
2015,04,22,17,34,13.60
2015,04,22,17,35,13.50
2015,04,22,17,36,13.50
2015,04,22,17,37,13.40
2015,04,22,17,38,13.50
2015,04,22,17,39,13.40
2015,04,22,17,40,13.40
2015,04,22,17,41,13.40
2015,04,22,17,42,13.40